Green Lofoten — P3MG8 — position and weather

sailwx.info

Track history (hours):
 
Tides and Currents Weather Stations Pressure Air Temp Water Temp Dewpoint Dewpoint Depression Visibility Wind Speed Wind Dir Waves Ship Positions

Green Lofoten

Last reported at 2014-Oct-21 12:27 UTC. Time now 2014-Oct-21 13:38 UTC.
Position N 55°22' E 018°57'.

Length 98 m; draft 5.5 m.

Type: Cargo ship. MMSI: 212857000.

Date/timePositionNaut miles runAvg speedWind from/ knotsBaromVisibWave heightAir tempDewpointWater temp
2014-Oct-21 12:27N 55°22' E 018°57'38 0.8
2014-Oct-19 13:23N 54°60' E 019°52'1012.1
2014-Oct-19 12:33N 54°52' E 019°42'9 9.2
2014-Oct-19 11:33N 54°43' E 019°42'10 9.3
2014-Oct-19 10:28N 54°38' E 019°58'8 7.7
2014-Oct-19 09:29N 54°41' E 020°10'7 7.8
2014-Oct-19 08:31N 54°41' E 020°23'3 0.1
2014-Oct-18 11:11N 54°42' E 020°27'21 0.9
2014-Oct-17 12:07N 54°39' E 019°52'3 4.5
2014-Oct-17 11:31N 54°40' E 019°47'0 0.0
2014-Oct-17 10:14N 54°40' E 019°47'0 0.0
2014-Oct-17 09:32N 54°40' E 019°47'0 0.0
2014-Oct-17 08:32N 54°40' E 019°47'0 0.0
2014-Oct-17 07:32N 54°40' E 019°47'0 0.0
2014-Oct-17 06:33N 54°40' E 019°47'2 1.7
2014-Oct-17 05:33N 54°41' E 019°45'8 7.8
2014-Oct-17 04:33N 54°45' E 019°34'1010.1
2014-Oct-17 03:33N 54°48' E 019°17'1010.2
2014-Oct-17 02:33N 54°51' E 019°00'1010.4
2014-Oct-17 01:33N 54°55' E 018°43'1110.6
2014-Oct-17 00:33N 54°56' E 018°25'1110.8
2014-Oct-16 23:33N 54°56' E 018°06'1110.7
2014-Oct-16 22:33N 54°56' E 017°47'8311.8
2014-Oct-16 15:32N 54°54' E 015°24'2912.5
2014-Oct-16 13:13N 54°53' E 014°33'912.3
2014-Oct-16 12:30N 54°56' E 014°19'4912.3
2014-Oct-16 08:33N 55°13' E 012°59'1212.1
2014-Oct-16 07:33N 55°18' E 012°40'1111.5
2014-Oct-16 06:33N 55°29' E 012°41'1111.3
2014-Oct-16 05:33N 55°40' E 012°41'1212.2
2014-Oct-16 04:33N 55°53' E 012°40'1111.5
2014-Oct-16 03:33N 56°04' E 012°38'1111.2
2014-Oct-16 02:33N 56°10' E 012°21'1212.5
2014-Oct-16 01:33N 56°18' E 012°03'1212.2
2014-Oct-16 00:33N 56°30' E 011°58'1212.0
2014-Oct-15 23:33N 56°41' E 011°53'1211.6
2014-Oct-15 22:33N 56°52' E 011°46'1211.6
2014-Oct-15 21:33N 57°03' E 011°39'1111.2
2014-Oct-15 20:33N 57°14' E 011°33'1211.6
2014-Oct-15 19:33N 57°25' E 011°26'1111.0
2014-Oct-15 18:32N 57°33' E 011°12'1111.0
2014-Oct-15 17:33N 57°40' E 010°57'1111.0
2014-Oct-15 16:33N 57°47' E 010°41'1010.1
2014-Oct-15 15:33N 57°46' E 010°22'1010.4
2014-Oct-15 14:33N 57°46' E 010°03'54212.3
2014-Oct-13 18:32N 62°15' W 005°38'4614.2
2014-Oct-13 15:16N 62°44' W 006°57'  
Track history (hours):
 
Tides and Currents Weather Stations Pressure Air Temp Water Temp Dewpoint Dewpoint Depression Visibility Wind Speed Wind Dir Waves Ship Positions

Green Lofoten

Last reported at 2014-Oct-21 12:27 UTC. Time now 2014-Oct-21 13:38 UTC.
Position N 55°22' E 018°57'.

Length 98 m; draft 5.5 m.

Type: Cargo ship. MMSI: 212857000.

Date/timePositionNaut miles runAvg speedWind from/ knotsBaromVisibWave heightAir tempDewpointWater temp
2014-Oct-21 12:27N 55°22' E 018°57'38 0.8
2014-Oct-19 13:23N 54°60' E 019°52'1012.1
2014-Oct-19 12:33N 54°52' E 019°42'9 9.2
2014-Oct-19 11:33N 54°43' E 019°42'10 9.3
2014-Oct-19 10:28N 54°38' E 019°58'8 7.7
2014-Oct-19 09:29N 54°41' E 020°10'7 7.8
2014-Oct-19 08:31N 54°41' E 020°23'3 0.1
2014-Oct-18 11:11N 54°42' E 020°27'21 0.9
2014-Oct-17 12:07N 54°39' E 019°52'3 4.5
2014-Oct-17 11:31N 54°40' E 019°47'0 0.0
2014-Oct-17 10:14N 54°40' E 019°47'0 0.0
2014-Oct-17 09:32N 54°40' E 019°47'0 0.0
2014-Oct-17 08:32N 54°40' E 019°47'0 0.0
2014-Oct-17 07:32N 54°40' E 019°47'0 0.0
2014-Oct-17 06:33N 54°40' E 019°47'2 1.7
2014-Oct-17 05:33N 54°41' E 019°45'8 7.8
2014-Oct-17 04:33N 54°45' E 019°34'1010.1
2014-Oct-17 03:33N 54°48' E 019°17'1010.2
2014-Oct-17 02:33N 54°51' E 019°00'1010.4
2014-Oct-17 01:33N 54°55' E 018°43'1110.6
2014-Oct-17 00:33N 54°56' E 018°25'1110.8
2014-Oct-16 23:33N 54°56' E 018°06'1110.7
2014-Oct-16 22:33N 54°56' E 017°47'8311.8
2014-Oct-16 15:32N 54°54' E 015°24'2912.5
2014-Oct-16 13:13N 54°53' E 014°33'912.3
2014-Oct-16 12:30N 54°56' E 014°19'4912.3
2014-Oct-16 08:33N 55°13' E 012°59'1212.1
2014-Oct-16 07:33N 55°18' E 012°40'1111.5
2014-Oct-16 06:33N 55°29' E 012°41'1111.3
2014-Oct-16 05:33N 55°40' E 012°41'1212.2
2014-Oct-16 04:33N 55°53' E 012°40'1111.5
2014-Oct-16 03:33N 56°04' E 012°38'1111.2
2014-Oct-16 02:33N 56°10' E 012°21'1212.5
2014-Oct-16 01:33N 56°18' E 012°03'1212.2
2014-Oct-16 00:33N 56°30' E 011°58'1212.0
2014-Oct-15 23:33N 56°41' E 011°53'1211.6
2014-Oct-15 22:33N 56°52' E 011°46'1211.6
2014-Oct-15 21:33N 57°03' E 011°39'1111.2
2014-Oct-15 20:33N 57°14' E 011°33'1211.6
2014-Oct-15 19:33N 57°25' E 011°26'1111.0
2014-Oct-15 18:32N 57°33' E 011°12'1111.0
2014-Oct-15 17:33N 57°40' E 010°57'1111.0
2014-Oct-15 16:33N 57°47' E 010°41'1010.1
2014-Oct-15 15:33N 57°46' E 010°22'1010.4
2014-Oct-15 14:33N 57°46' E 010°03'54212.3
2014-Oct-13 18:32N 62°15' W 005°38'4614.2
2014-Oct-13 15:16N 62°44' W 006°57'  

Dump ship's entire track history